Year,Month,Day,Hour,Minute,Value (Times are PST for temperature in C)
2008,09,23,00,00,9.80
2008,09,23,00,01,9.80
2008,09,23,00,02,9.70
2008,09,23,00,03,9.70
2008,09,23,00,04,9.70
2008,09,23,00,05,9.70
2008,09,23,00,06,9.70
2008,09,23,00,07,9.70
2008,09,23,00,08,9.70
2008,09,23,00,09,9.70
2008,09,23,00,10,9.70
2008,09,23,00,11,9.70
2008,09,23,00,12,9.70
2008,09,23,00,13,9.70
2008,09,23,00,14,9.70
2008,09,23,00,15,9.70
2008,09,23,00,16,9.70
2008,09,23,00,17,9.70
2008,09,23,00,18,9.70
2008,09,23,00,19,9.70
2008,09,23,00,20,9.70
2008,09,23,00,21,9.70
2008,09,23,00,22,9.70
2008,09,23,00,23,9.60
2008,09,23,00,24,9.60
2008,09,23,00,25,9.60
2008,09,23,00,26,9.60
2008,09,23,00,27,9.60
2008,09,23,00,28,9.60
2008,09,23,00,29,9.60
2008,09,23,00,30,9.60
2008,09,23,00,31,9.50
2008,09,23,00,32,9.50
2008,09,23,00,33,9.50
2008,09,23,00,34,9.50
2008,09,23,00,35,9.50
2008,09,23,00,36,9.50
2008,09,23,00,37,9.50
2008,09,23,00,38,9.40
2008,09,23,00,39,9.40
2008,09,23,00,40,9.40
2008,09,23,00,41,9.40
2008,09,23,00,42,9.40
2008,09,23,00,43,9.40
2008,09,23,00,44,9.40
2008,09,23,00,45,9.40
2008,09,23,00,46,9.40
2008,09,23,00,47,9.30
2008,09,23,00,48,9.30
2008,09,23,00,49,9.30
2008,09,23,00,50,9.30
2008,09,23,00,51,9.30
2008,09,23,00,52,9.30
2008,09,23,00,53,9.30
2008,09,23,00,54,9.30
2008,09,23,00,55,9.30
2008,09,23,00,56,9.30
2008,09,23,00,57,9.30
2008,09,23,00,58,9.30
2008,09,23,00,59,9.30
2008,09,23,01,00,9.30
2008,09,23,01,01,9.30
2008,09,23,01,02,9.30
2008,09,23,01,03,9.20
2008,09,23,01,04,9.20
2008,09,23,01,05,9.20
2008,09,23,01,06,9.20
2008,09,23,01,07,9.20
2008,09,23,01,08,9.20
2008,09,23,01,09,9.20
2008,09,23,01,10,9.20
2008,09,23,01,11,9.20
2008,09,23,01,12,9.20
2008,09,23,01,13,9.20
2008,09,23,01,14,9.20
2008,09,23,01,15,9.20
2008,09,23,01,16,9.20
2008,09,23,01,17,9.20
2008,09,23,01,18,9.20
2008,09,23,01,19,9.20
2008,09,23,01,20,9.20
2008,09,23,01,21,9.20
2008,09,23,01,22,9.20
2008,09,23,01,23,9.20
2008,09,23,01,24,9.20
2008,09,23,01,25,9.20
2008,09,23,01,26,9.20
2008,09,23,01,27,9.20
2008,09,23,01,28,9.20
2008,09,23,01,29,9.20
2008,09,23,01,30,9.20
2008,09,23,01,31,9.10
2008,09,23,01,32,9.10
2008,09,23,01,33,9.10
2008,09,23,01,34,9.10
2008,09,23,01,35,9.10
2008,09,23,01,36,9.10
2008,09,23,01,37,9.10
2008,09,23,01,38,9.00
2008,09,23,01,39,9.00
2008,09,23,01,40,9.00
2008,09,23,01,41,9.00
2008,09,23,01,42,9.00
2008,09,23,01,43,9.00
2008,09,23,01,44,9.00
2008,09,23,01,45,9.00
2008,09,23,01,46,9.00
2008,09,23,01,47,9.00
2008,09,23,01,48,9.00
2008,09,23,01,49,9.00
2008,09,23,01,50,9.00
2008,09,23,01,51,9.00
2008,09,23,01,52,9.00
2008,09,23,01,53,9.00
2008,09,23,01,54,9.00
2008,09,23,01,55,9.00
2008,09,23,01,56,9.00
2008,09,23,01,57,9.00
2008,09,23,01,58,9.00
2008,09,23,01,59,9.00
2008,09,23,02,00,9.00
2008,09,23,02,01,9.00
2008,09,23,02,02,9.00
2008,09,23,02,03,9.00
2008,09,23,02,04,9.00
2008,09,23,02,05,9.00
2008,09,23,02,06,9.00
2008,09,23,02,07,9.00
2008,09,23,02,08,9.00
2008,09,23,02,09,9.00
2008,09,23,02,10,9.00
2008,09,23,02,11,9.00
2008,09,23,02,12,9.00
2008,09,23,02,13,9.00
2008,09,23,02,14,9.00
2008,09,23,02,15,8.90
2008,09,23,02,16,8.90
2008,09,23,02,17,8.90
2008,09,23,02,18,8.90
2008,09,23,02,19,8.90
2008,09,23,02,20,8.90
2008,09,23,02,21,8.80
2008,09,23,02,22,8.80
2008,09,23,02,23,8.80
2008,09,23,02,24,8.80
2008,09,23,02,25,8.80
2008,09,23,02,26,8.80
2008,09,23,02,27,8.80
2008,09,23,02,28,8.80
2008,09,23,02,29,8.80
2008,09,23,02,30,8.70
2008,09,23,02,31,8.70
2008,09,23,02,32,8.70
2008,09,23,02,33,8.70
2008,09,23,02,34,8.70
2008,09,23,02,35,8.70
2008,09,23,02,36,8.70
2008,09,23,02,37,8.70
2008,09,23,02,38,8.70
2008,09,23,02,39,8.70
2008,09,23,02,40,8.70
2008,09,23,02,41,8.60
2008,09,23,02,42,8.60
2008,09,23,02,43,8.60
2008,09,23,02,44,8.60
2008,09,23,02,45,8.60
2008,09,23,02,46,8.50
2008,09,23,02,47,8.50
2008,09,23,02,48,8.50
2008,09,23,02,49,8.50
2008,09,23,02,50,8.50
2008,09,23,02,51,8.50
2008,09,23,02,52,8.50
2008,09,23,02,53,8.40
2008,09,23,02,54,8.40
2008,09,23,02,55,8.40
2008,09,23,02,56,8.40
2008,09,23,02,57,8.40
2008,09,23,02,58,8.40
2008,09,23,02,59,8.40
2008,09,23,03,00,8.40
2008,09,23,03,01,8.40
2008,09,23,03,02,8.40
2008,09,23,03,03,8.40
2008,09,23,03,04,8.40
2008,09,23,03,05,8.40
2008,09,23,03,06,8.40
2008,09,23,03,07,8.40
2008,09,23,03,08,8.40
2008,09,23,03,09,8.30
2008,09,23,03,10,8.30
2008,09,23,03,11,8.30
2008,09,23,03,12,8.30
2008,09,23,03,13,8.30
2008,09,23,03,14,8.30
2008,09,23,03,15,8.20
2008,09,23,03,16,8.20
2008,09,23,03,17,8.20
2008,09,23,03,18,8.20
2008,09,23,03,19,8.20
2008,09,23,03,20,8.20
2008,09,23,03,21,8.20
2008,09,23,03,22,8.20
2008,09,23,03,23,8.20
2008,09,23,03,24,8.20
2008,09,23,03,25,8.20
2008,09,23,03,26,8.20
2008,09,23,03,27,8.20
2008,09,23,03,28,8.20
2008,09,23,03,29,8.20
2008,09,23,03,30,8.20
2008,09,23,03,31,8.20
2008,09,23,03,32,8.10
2008,09,23,03,33,8.10
2008,09,23,03,34,8.10
2008,09,23,03,35,8.10
2008,09,23,03,36,8.10
2008,09,23,03,37,8.10
2008,09,23,03,38,8.10
2008,09,23,03,39,8.00
2008,09,23,03,40,8.00
2008,09,23,03,41,8.00
2008,09,23,03,42,8.00
2008,09,23,03,43,8.00
2008,09,23,03,44,7.90
2008,09,23,03,45,7.90
2008,09,23,03,46,7.90
2008,09,23,03,47,7.90
2008,09,23,03,48,7.90
2008,09,23,03,49,7.90
2008,09,23,03,50,7.90
2008,09,23,03,51,7.90
2008,09,23,03,52,7.80
2008,09,23,03,53,7.80
2008,09,23,03,54,7.80
2008,09,23,03,55,7.80
2008,09,23,03,56,7.80
2008,09,23,03,57,7.80
2008,09,23,03,58,7.80
2008,09,23,03,59,7.80
2008,09,23,04,00,7.80
2008,09,23,04,01,7.80
2008,09,23,04,02,7.80
2008,09,23,04,03,7.80
2008,09,23,04,27,7.60
2008,09,23,04,28,7.60
2008,09,23,04,29,7.60
2008,09,23,04,30,7.60
2008,09,23,04,31,7.60
2008,09,23,04,32,7.60
2008,09,23,04,33,7.60
2008,09,23,04,34,7.60
2008,09,23,04,35,7.50
2008,09,23,04,36,7.50
2008,09,23,04,37,7.50
2008,09,23,04,38,7.50
2008,09,23,04,39,7.50
2008,09,23,04,40,7.50
2008,09,23,04,41,7.50
2008,09,23,04,42,7.50
2008,09,23,04,43,7.50
2008,09,23,04,44,7.40
2008,09,23,04,45,7.40
2008,09,23,04,46,7.40
2008,09,23,04,47,7.30
2008,09,23,04,48,7.30
2008,09,23,04,49,7.30
2008,09,23,04,50,7.30
2008,09,23,04,51,7.30
2008,09,23,04,52,7.30
2008,09,23,04,53,7.20
2008,09,23,04,54,7.10
2008,09,23,04,55,7.10
2008,09,23,04,56,7.10
2008,09,23,04,57,7.10
2008,09,23,04,58,7.00
2008,09,23,04,59,7.00
2008,09,23,05,00,7.00
2008,09,23,05,01,7.00
2008,09,23,05,02,6.90
2008,09,23,05,03,6.90
2008,09,23,05,04,6.90
2008,09,23,05,05,6.90
2008,09,23,05,06,7.00
2008,09,23,05,07,7.00
2008,09,23,05,08,7.00
2008,09,23,05,09,7.00
2008,09,23,05,10,7.10
2008,09,23,05,11,7.10
2008,09,23,05,12,7.10
2008,09,23,05,13,7.10
2008,09,23,05,14,7.10
2008,09,23,05,15,7.10
2008,09,23,05,16,7.10
2008,09,23,05,17,7.20
2008,09,23,05,18,7.30
2008,09,23,05,19,7.30
2008,09,23,05,20,7.40
2008,09,23,05,21,7.50
2008,09,23,05,22,7.50
2008,09,23,05,23,7.60
2008,09,23,05,24,7.60
2008,09,23,05,25,7.60
2008,09,23,05,26,7.60
2008,09,23,05,27,7.70
2008,09,23,05,28,7.70
2008,09,23,05,29,7.70
2008,09,23,05,30,7.70
2008,09,23,05,31,7.70
2008,09,23,05,32,7.70
2008,09,23,05,33,7.70
2008,09,23,05,34,7.70
2008,09,23,05,35,7.70
2008,09,23,05,36,7.70
2008,09,23,05,37,7.70
2008,09,23,05,38,7.70
2008,09,23,05,39,7.70
2008,09,23,05,40,7.60
2008,09,23,05,41,7.60
2008,09,23,05,42,7.60
2008,09,23,05,43,7.60
2008,09,23,05,44,7.50
2008,09,23,05,45,7.60
2008,09,23,05,46,7.60
2008,09,23,05,47,7.60
2008,09,23,05,48,7.60
2008,09,23,05,49,7.50
2008,09,23,05,50,7.50
2008,09,23,05,51,7.50
2008,09,23,05,52,7.50
2008,09,23,05,53,7.50
2008,09,23,05,54,7.50
2008,09,23,05,55,7.50
2008,09,23,05,56,7.50
2008,09,23,05,57,7.50
2008,09,23,05,58,7.50
2008,09,23,05,59,7.50
2008,09,23,06,00,7.50
2008,09,23,06,01,7.50
2008,09,23,06,02,7.50
2008,09,23,06,03,7.50
2008,09,23,06,04,7.50
2008,09,23,06,05,7.50
2008,09,23,06,06,7.50
2008,09,23,06,07,7.50
2008,09,23,06,08,7.60
2008,09,23,06,09,7.60
2008,09,23,06,10,7.60
2008,09,23,06,11,7.60
2008,09,23,06,12,7.70
2008,09,23,06,13,7.70
2008,09,23,06,14,7.80
2008,09,23,06,15,7.80
2008,09,23,06,16,7.80
2008,09,23,06,17,7.80
2008,09,23,06,18,7.80
2008,09,23,06,19,7.80
2008,09,23,06,20,7.80
2008,09,23,06,21,7.90
2008,09,23,06,22,7.90
2008,09,23,06,23,7.90
2008,09,23,06,24,7.90
2008,09,23,06,25,7.90
2008,09,23,06,26,7.90
2008,09,23,06,27,7.90
2008,09,23,06,28,7.90
2008,09,23,06,29,7.90
2008,09,23,06,30,7.80
2008,09,23,06,31,7.80
2008,09,23,06,32,7.80
2008,09,23,06,33,7.80
2008,09,23,06,34,7.80
2008,09,23,06,35,7.80
2008,09,23,06,36,7.80
2008,09,23,06,37,7.80
2008,09,23,06,38,7.80
2008,09,23,06,39,7.80
2008,09,23,06,40,7.80
2008,09,23,06,41,7.80
2008,09,23,06,42,7.80
2008,09,23,06,43,7.80
2008,09,23,06,44,7.80
2008,09,23,06,45,7.80
2008,09,23,06,46,7.80
2008,09,23,06,47,7.80
2008,09,23,06,48,7.80
2008,09,23,06,49,7.80
2008,09,23,06,50,7.80
2008,09,23,06,51,7.80
2008,09,23,06,52,7.80
2008,09,23,06,53,7.80
2008,09,23,06,54,7.80
2008,09,23,06,55,7.80
2008,09,23,06,56,7.80
2008,09,23,06,57,7.80
2008,09,23,06,58,7.80
2008,09,23,06,59,7.80
2008,09,23,07,00,7.80
2008,09,23,07,01,7.80
2008,09,23,07,02,7.80
2008,09,23,07,03,7.80
2008,09,23,07,04,7.80
2008,09,23,07,05,7.80
2008,09,23,07,06,7.80
2008,09,23,07,07,7.80
2008,09,23,07,08,7.80
2008,09,23,07,09,7.80
2008,09,23,07,10,7.80
2008,09,23,07,11,7.80
2008,09,23,07,12,7.80
2008,09,23,07,13,7.80
2008,09,23,07,14,7.80
2008,09,23,07,15,7.80
2008,09,23,07,16,7.80
2008,09,23,07,17,7.80
2008,09,23,07,18,7.80
2008,09,23,07,19,7.90
2008,09,23,07,20,7.90
2008,09,23,07,21,7.90
2008,09,23,07,22,7.90
2008,09,23,07,23,8.00
2008,09,23,07,24,8.00
2008,09,23,07,25,8.00
2008,09,23,07,26,8.00
2008,09,23,07,27,8.00
2008,09,23,07,28,8.00
2008,09,23,07,29,8.00
2008,09,23,07,30,8.00
2008,09,23,07,31,8.00
2008,09,23,07,32,8.00
2008,09,23,07,33,8.00
2008,09,23,07,34,8.00
2008,09,23,07,35,8.00
2008,09,23,07,36,8.00
2008,09,23,07,37,8.00
2008,09,23,07,38,8.10
2008,09,23,07,39,8.10
2008,09,23,07,40,8.10
2008,09,23,07,41,8.10
2008,09,23,07,42,8.10
2008,09,23,07,43,8.10
2008,09,23,07,44,8.10
2008,09,23,07,45,8.20
2008,09,23,07,46,8.20
2008,09,23,07,47,8.20
2008,09,23,07,48,8.20
2008,09,23,07,49,8.20
2008,09,23,07,50,8.20
2008,09,23,07,51,8.20
2008,09,23,07,52,8.20
2008,09,23,07,53,8.20
2008,09,23,07,54,8.20
2008,09,23,07,55,8.20
2008,09,23,07,56,8.20
2008,09,23,07,57,8.20
2008,09,23,07,58,8.20
2008,09,23,07,59,8.20
2008,09,23,08,00,8.20
2008,09,23,08,01,8.20
2008,09,23,08,02,8.20
2008,09,23,08,03,8.20
2008,09,23,08,04,8.20
2008,09,23,08,05,8.10
2008,09,23,08,06,8.10
2008,09,23,08,07,8.10
2008,09,23,08,08,8.10
2008,09,23,08,09,8.10
2008,09,23,08,10,8.10
2008,09,23,08,11,8.10
2008,09,23,08,12,8.10
2008,09,23,08,13,8.10
2008,09,23,08,14,8.10
2008,09,23,08,15,8.10
2008,09,23,08,16,8.10
2008,09,23,08,17,8.10
2008,09,23,08,18,8.10
2008,09,23,08,19,8.10
2008,09,23,08,20,8.20
2008,09,23,08,21,8.20
2008,09,23,08,22,8.20
2008,09,23,08,23,8.20
2008,09,23,08,24,8.20
2008,09,23,08,25,8.20
2008,09,23,08,26,8.20
2008,09,23,08,27,8.30
2008,09,23,08,28,8.30
2008,09,23,08,29,8.40
2008,09,23,08,30,8.40
2008,09,23,08,31,8.40
2008,09,23,08,32,8.50
2008,09,23,08,33,8.50
2008,09,23,08,34,8.50
2008,09,23,08,35,8.60
2008,09,23,08,36,8.60
2008,09,23,08,37,8.60
2008,09,23,08,38,8.70
2008,09,23,08,39,8.70
2008,09,23,08,40,8.70
2008,09,23,08,41,8.70
2008,09,23,08,42,8.70
2008,09,23,08,43,8.80
2008,09,23,08,44,8.80
2008,09,23,08,45,8.80
2008,09,23,08,46,8.90
2008,09,23,08,47,8.90
2008,09,23,08,48,8.90
2008,09,23,08,49,9.00
2008,09,23,08,50,9.00
2008,09,23,08,51,9.00
2008,09,23,08,52,9.10
2008,09,23,08,53,9.10
2008,09,23,08,54,9.20
2008,09,23,08,55,9.20
2008,09,23,08,56,9.20
2008,09,23,08,57,9.30
2008,09,23,08,58,9.30
2008,09,23,08,59,9.40
2008,09,23,09,00,9.40
2008,09,23,09,01,9.40
2008,09,23,09,02,9.50
2008,09,23,09,03,9.50
2008,09,23,09,04,9.50
2008,09,23,09,05,9.60
2008,09,23,09,06,9.70
2008,09,23,09,07,9.70
2008,09,23,09,08,9.80
2008,09,23,09,09,9.80
2008,09,23,09,10,9.90
2008,09,23,09,11,9.90
2008,09,23,09,12,9.90
2008,09,23,09,13,9.90
2008,09,23,09,14,9.90
2008,09,23,09,15,9.90
2008,09,23,09,16,9.90
2008,09,23,09,17,9.90
2008,09,23,09,18,9.90
2008,09,23,09,19,9.90
2008,09,23,09,20,10.00
2008,09,23,09,21,10.10
2008,09,23,09,22,10.10
2008,09,23,09,23,10.10
2008,09,23,09,24,10.10
2008,09,23,09,25,9.90
2008,09,23,09,26,9.90
2008,09,23,09,27,9.80
2008,09,23,09,28,9.80
2008,09,23,09,29,9.80
2008,09,23,09,30,9.80
2008,09,23,09,31,9.80
2008,09,23,09,32,9.80
2008,09,23,09,33,9.80
2008,09,23,09,34,9.80
2008,09,23,09,35,9.80
2008,09,23,09,36,9.80
2008,09,23,09,37,9.80
2008,09,23,09,38,9.90
2008,09,23,09,39,9.90
2008,09,23,09,40,10.00
2008,09,23,09,41,10.10
2008,09,23,09,42,10.10
2008,09,23,09,43,10.10
2008,09,23,09,44,10.20
2008,09,23,09,45,10.20
2008,09,23,09,46,10.20
2008,09,23,09,47,10.20
2008,09,23,09,48,10.20
2008,09,23,09,49,10.20
2008,09,23,09,50,10.20
2008,09,23,09,51,10.10
2008,09,23,09,52,10.10
2008,09,23,09,53,10.10
2008,09,23,09,54,10.10
2008,09,23,09,55,10.10
2008,09,23,09,56,10.10
2008,09,23,09,57,10.10
2008,09,23,09,58,10.10
2008,09,23,09,59,10.10
2008,09,23,10,00,10.10
2008,09,23,10,01,10.20
2008,09,23,10,02,10.20
2008,09,23,10,03,10.20
2008,09,23,10,04,10.20
2008,09,23,10,05,10.20
2008,09,23,10,06,10.20
2008,09,23,10,07,10.10
2008,09,23,10,08,10.10
2008,09,23,10,09,10.10
2008,09,23,10,10,10.20
2008,09,23,10,11,10.20
2008,09,23,10,12,10.20
2008,09,23,10,13,10.20
2008,09,23,10,14,10.20
2008,09,23,10,15,10.20
2008,09,23,10,16,10.20
2008,09,23,10,17,10.20
2008,09,23,10,18,10.20
2008,09,23,10,19,10.10
2008,09,23,10,20,10.10
2008,09,23,10,21,10.20
2008,09,23,10,22,10.20
2008,09,23,10,23,10.30
2008,09,23,10,24,10.30
2008,09,23,10,25,10.30
2008,09,23,10,26,10.40
2008,09,23,10,27,10.40
2008,09,23,10,28,10.40
2008,09,23,10,29,10.30
2008,09,23,10,30,10.30
2008,09,23,10,31,10.30
2008,09,23,10,32,10.30
2008,09,23,10,33,10.30
2008,09,23,10,34,10.40
2008,09,23,10,35,10.40
2008,09,23,10,36,10.40
2008,09,23,10,37,10.40
2008,09,23,10,38,10.40
2008,09,23,10,39,10.40
2008,09,23,10,40,10.40
2008,09,23,10,41,10.50
2008,09,23,10,42,10.60
2008,09,23,10,43,10.60
2008,09,23,10,44,10.60
2008,09,23,10,45,10.60
2008,09,23,10,46,10.60
2008,09,23,10,47,10.60
2008,09,23,10,48,10.60
2008,09,23,10,49,10.60
2008,09,23,10,50,10.60
2008,09,23,10,51,10.60
2008,09,23,10,52,10.60
2008,09,23,10,53,10.60
2008,09,23,10,54,10.60
2008,09,23,10,55,10.60
2008,09,23,10,56,10.60
2008,09,23,10,57,10.60
2008,09,23,10,58,10.60
2008,09,23,10,59,10.60
2008,09,23,11,00,10.60
2008,09,23,11,01,10.60
2008,09,23,11,02,10.60
2008,09,23,11,03,10.60
2008,09,23,11,04,10.70
2008,09,23,11,05,10.70
2008,09,23,11,06,10.70
2008,09,23,11,07,10.70
2008,09,23,11,08,10.80
2008,09,23,11,09,10.80
2008,09,23,11,10,10.80
2008,09,23,11,11,10.90
2008,09,23,11,12,10.90
2008,09,23,11,13,10.90
2008,09,23,11,14,10.90
2008,09,23,11,15,10.90
2008,09,23,11,16,10.90
2008,09,23,11,17,10.90
2008,09,23,11,18,10.90
2008,09,23,11,19,10.90
2008,09,23,11,20,10.90
2008,09,23,11,21,10.90
2008,09,23,11,22,10.90
2008,09,23,11,23,10.90
2008,09,23,11,24,10.90
2008,09,23,11,25,10.90
2008,09,23,11,26,10.90
2008,09,23,11,27,10.90
2008,09,23,11,28,10.90
2008,09,23,11,29,10.90
2008,09,23,11,30,10.90
2008,09,23,11,31,10.90
2008,09,23,11,32,10.90
2008,09,23,11,33,10.90
2008,09,23,11,34,10.90
2008,09,23,11,35,10.90
2008,09,23,11,36,10.90
2008,09,23,11,37,10.90
2008,09,23,11,38,11.00
2008,09,23,11,39,11.10
2008,09,23,11,40,11.10
2008,09,23,11,41,11.10
2008,09,23,11,42,11.10
2008,09,23,11,43,11.10
2008,09,23,11,44,11.10
2008,09,23,11,45,11.00
2008,09,23,11,46,10.90
2008,09,23,11,47,10.90
2008,09,23,11,48,10.90
2008,09,23,11,49,10.90
2008,09,23,11,50,10.90
2008,09,23,11,51,10.90
2008,09,23,11,52,10.90
2008,09,23,11,53,10.90
2008,09,23,11,54,10.90
2008,09,23,11,55,11.10
2008,09,23,11,56,11.10
2008,09,23,11,57,11.10
2008,09,23,11,58,11.10
2008,09,23,11,59,11.10
2008,09,23,12,00,11.10
2008,09,23,12,01,11.20
2008,09,23,12,02,11.20
2008,09,23,12,03,11.20
2008,09,23,12,04,11.30
2008,09,23,12,05,11.30
2008,09,23,12,06,11.40
2008,09,23,12,07,11.40
2008,09,23,12,08,11.40
2008,09,23,12,09,11.40
2008,09,23,12,10,11.40
2008,09,23,12,11,11.40
2008,09,23,12,12,11.40
2008,09,23,12,13,11.60
2008,09,23,12,14,11.60
2008,09,23,12,15,11.40
2008,09,23,12,16,11.60
2008,09,23,12,17,11.60
2008,09,23,12,18,11.60
2008,09,23,12,19,11.60
2008,09,23,12,20,11.70
2008,09,23,12,21,11.70
2008,09,23,12,22,11.80
2008,09,23,12,23,11.80
2008,09,23,12,24,11.80
2008,09,23,12,25,11.80
2008,09,23,12,26,11.90
2008,09,23,12,27,11.90
2008,09,23,12,28,12.00
2008,09,23,12,29,12.00
2008,09,23,12,30,12.10
2008,09,23,12,31,12.10
2008,09,23,12,32,12.10
2008,09,23,12,33,12.00
2008,09,23,12,34,12.00
2008,09,23,12,35,12.00
2008,09,23,12,36,12.00
2008,09,23,12,37,12.00
2008,09,23,12,38,12.00
2008,09,23,12,39,12.10
2008,09,23,12,40,12.20
2008,09,23,12,41,12.30
2008,09,23,12,42,12.30
2008,09,23,12,43,12.30
2008,09,23,12,44,12.40
2008,09,23,12,45,12.50
2008,09,23,12,46,12.50
2008,09,23,12,47,12.50
2008,09,23,12,48,12.50
2008,09,23,12,49,12.40
2008,09,23,12,50,12.40
2008,09,23,12,51,12.40
2008,09,23,12,52,12.30
2008,09,23,12,53,12.40
2008,09,23,12,54,12.50
2008,09,23,12,55,12.50
2008,09,23,12,56,12.50
2008,09,23,12,57,12.60
2008,09,23,12,58,12.70
2008,09,23,12,59,12.70
2008,09,23,13,00,12.80
2008,09,23,13,01,12.80
2008,09,23,13,02,12.80
2008,09,23,13,03,12.90
2008,09,23,13,04,12.90
2008,09,23,13,05,12.90
2008,09,23,13,06,12.90
2008,09,23,13,07,12.80
2008,09,23,13,08,12.80
2008,09,23,13,09,12.80
2008,09,23,13,10,12.90
2008,09,23,13,11,13.00
2008,09,23,13,12,13.00
2008,09,23,13,13,12.90
2008,09,23,13,14,12.90
2008,09,23,13,15,12.90
2008,09,23,13,16,12.80
2008,09,23,13,17,12.80
2008,09,23,13,18,12.80
2008,09,23,13,19,12.70
2008,09,23,13,20,12.70
2008,09,23,13,21,12.70
2008,09,23,13,22,12.60
2008,09,23,13,23,12.70
2008,09,23,13,24,12.70
2008,09,23,13,25,12.60
2008,09,23,13,26,12.60
2008,09,23,13,27,12.50
2008,09,23,13,28,12.50
2008,09,23,13,29,12.40
2008,09,23,13,30,12.40
2008,09,23,13,31,12.30
2008,09,23,13,32,12.30
2008,09,23,13,33,12.30
2008,09,23,13,34,12.40
2008,09,23,13,35,12.40
2008,09,23,13,36,12.50
2008,09,23,13,37,12.50
2008,09,23,13,38,12.50
2008,09,23,13,39,12.60
2008,09,23,13,40,12.60
2008,09,23,13,41,12.60
2008,09,23,13,42,12.60
2008,09,23,13,43,12.70
2008,09,23,13,44,12.80
2008,09,23,13,45,12.80
2008,09,23,13,46,12.80
2008,09,23,13,47,12.80
2008,09,23,13,48,12.80
2008,09,23,13,49,12.80
2008,09,23,13,50,12.80
2008,09,23,13,51,12.80
2008,09,23,13,52,12.90
2008,09,23,13,53,12.90
2008,09,23,13,54,12.90
2008,09,23,13,55,12.90
2008,09,23,13,56,12.90
2008,09,23,13,57,12.80
2008,09,23,13,58,12.80
2008,09,23,13,59,12.80
2008,09,23,14,00,12.80
2008,09,23,14,01,12.80
2008,09,23,14,02,12.80
2008,09,23,14,03,12.80
2008,09,23,14,04,12.80
2008,09,23,14,05,12.80
2008,09,23,14,06,12.80
2008,09,23,14,07,12.80
2008,09,23,14,08,12.90
2008,09,23,14,09,12.90
